Location: Newark
(7.0858°N, 171.3717°E)
Time: 05:04:34
(UTC+00:00)

Vanguard 2 - Pass Details

Date: 26 November 2020
Orbit: 553 x 2937 km, 32.9° (Epoch: 26 January)

Event Time Altitude Azimuth Distance (km) Brightness Sun altitude
Rises 19:14:37 0° 231° (SW) 5,924 11.8 9.5°
Reaches altitude 10° 19:19:08 10° 229° (SW) 4,558 11.2 10.6°
Maximum altitude 19:30:42 71° 147° (SSE) 1,445 9.4 13.2°
Drops below altitude 10° 19:37:24 10° 64° (ENE) 2,740 11.0 14.7°
Sets 19:39:30 0° 62° (ENE) 3,472 11.5 15.2°
